Perugia, Italy

5:01 PM CEST on May 27, 2017 (GMT +0200)
San Egidio

Weather History for LIRZ - September, 2013

Change the Weather History Date:

Monday, September 9, 2013

  Actual Average Record
Temperature  
Mean Temperature 72 °F -  
Max Temperature 77 °F 72 °F 93 °F (2011)
Min Temperature 68 °F 52 °F 48 °F (1996)
Cooling Degree Days 8    
Growing Degree Days 22 (Base 50)    
Moisture  
Dew Point 65 °F    
Average Humidity 79    
Maximum Humidity 94    
Minimum Humidity 61    
Precipitation  
Precipitation 0.00 in 0.09 in - ()
Sea Level Pressure  
Sea Level Pressure 30.06 in    
Wind  
Wind Speed 6 mph ()    
Max Wind Speed 12 mph    
Max Gust Speed -    
Visibility 5.9 miles    
Events Rain , Thunderstorm    
Averages and records for this station are not official NWS values.
T = Trace of Precipitation, MM = Missing Value Source: Averaged Metar Reports

Daily Weather History Graph

Daily Weather History Graph

Search for Another Location

Airport or City:

Trip Planner

Search our weather history database for the weather conditions in past years. The results will help you decide how hot, cold, wet, or windy it might be!

Date:

Astronomy

Sep. 09, 2013 Rise Set
Actual Time 6:43 AM CEST 7:30 PM CEST
Civil Twilight 6:14 AM CEST 7:59 PM CEST
Nautical Twilight 5:40 AM CEST 8:33 PM CEST
Astronomical Twilight 5:04 AM CEST 9:09 PM CEST
Moon 10:54 AM CEST (9/9) 9:27 PM CEST (9/9)
Length of Visible Light 13h 45m
Length of Day
12h 47m
Waxing Crescent, 16% of the Moon is Illuminated
Sep 9
Waxing Crescent
Sep 12
First Quarter
Sep 19
Full
Sep 27
Last Quarter
Oct 5
New

Hourly Weather History & Observations

Time (CEST) Temp. Dew Point Humidity Pressure Visibility Wind Dir Wind Speed Gust Speed Precip Events Conditions
6:06 AM 71.6 °F 66.2 °F 83% 30.06 in 6.2 mi SSE 10.4 mph - N/A Rain , Thunderstorm Light Rain
6:50 AM 71.6 °F 68.0 °F 88% 30.06 in 5.6 mi South 8.1 mph - N/A Thunderstorm Thunderstorm
7:50 AM 68.0 °F 64.4 °F 88% 30.06 in 6.2 mi NW 5.8 mph - N/A Rain Light Rain
8:50 AM 68.0 °F 66.2 °F 94% 30.06 in 6.2 mi NNE 3.5 mph - N/A   Mostly Cloudy
10:00 AM 71.6 °F 66.2 °F 83% 30.06 in 6.2 mi Variable 1.2 mph - N/A Rain Rain
10:12 AM 69.8 °F 66.2 °F 88% 30.09 in 5.0 mi NW 6.9 mph - N/A Rain Rain Showers
10:28 AM 69.8 °F 66.2 °F 88% 30.09 in 3.7 mi West 3.5 mph - N/A Rain , Thunderstorm Heavy Thunderstorms and Rain
11:15 AM 69.8 °F 68.0 °F 94% 30.06 in 6.2 mi ESE 5.8 mph - N/A   Mostly Cloudy
1:50 PM 77.0 °F 66.2 °F 69% 30.06 in 6.2 mi SSW 4.6 mph - N/A   Mostly Cloudy
2:50 PM 77.0 °F 66.2 °F 69% 30.06 in 6.2 mi SE 5.8 mph - N/A   Scattered Clouds
3:50 PM 77.0 °F 64.4 °F 65% 30.06 in 6.2 mi SSE 11.5 mph - N/A   Scattered Clouds
5:50 PM 77.0 °F 62.6 °F 61% 30.04 in 6.2 mi SSE 11.5 mph - N/A   Mostly Cloudy
6:50 PM 75.2 °F 62.6 °F 65% 30.04 in 6.2 mi SSE 6.9 mph - N/A   Mostly Cloudy
7:50 PM 75.2 °F 64.4 °F 69% 30.04 in 6.2 mi South 9.2 mph - N/A   Mostly Cloudy
8:50 PM 73.4 °F 64.4 °F 73% 30.06 in 6.2 mi South 5.8 mph - N/A   Mostly Cloudy
9:50 PM 71.6 °F 64.4 °F 78% 30.06 in 6.2 mi SSW 6.9 mph - N/A Rain Light Rain
10:26 PM 69.8 °F 64.4 °F 83% 30.09 in 5.6 mi WSW 11.5 mph - N/A Rain Rain
10:50 PM 69.8 °F 64.4 °F 83% 30.09 in 6.2 mi SW 8.1 mph - N/A   Light Drizzle
11:50 PM 69.8 °F 60.8 °F 73% 30.09 in 6.2 mi SSW 4.6 mph - N/A   Light Drizzle